PRAETORIAN SDA_601

Last updated on Sat Aug 15 2026 00:03:40 GMT+0000 (Coordinated Universal Time)

1 65585U 25203W 26226.57950641 .00000436 00000+0 38700-3 0 9999 2 65585 81.3070 317.0451 0006420 56.1972 303.9795 13.83173395 46754
UTC large
Height (km)
Speed (km/s)
/
Latitude / Longitude
Inclination (degrees)
Orbital Period (minutes)
Azimuth
Elevation
Range (km)
Doppler Factor

Next 0 passes for location: London (51.5072 / 0.1276)

No passes found over London.
PRAETORIAN SDA_601